IONIA-WX Weather Reports


time (UTC)temp
C
wind
direction
speed
KPH
gust
KPH
rain 1hr
cm
rain 24hr
cm
rain mn
cm
humidity
%
barometer
mb
20260509041517 8 188 9.7 0.0 0.00 0.00 0.00 43 976.5
20260509040047 8 182 9.7 0.0 0.00 0.00 0.00 43 976.5
20260509034518 8 196 8.0 0.0 0.00 0.00 0.00 43 977.1
20260509033033 9 196 8.0 0.0 0.00 0.00 0.00 39 977.7
20260509031517 9 197 9.7 0.0 0.00 0.00 0.00 39 977.7
20260509030045 9 199 9.7 0.0 0.00 0.00 0.00 39 977.7
20260509024517 10 217 8.0 0.0 0.00 0.00 0.00 29 978.3
20260509023035 10 213 9.7 0.0 0.00 0.00 0.00 35 978.0
20260509021517 10 228 9.7 0.0 0.00 0.00 0.00 35 977.9
20260509020044 10 234 8.0 0.0 0.00 0.00 0.00 35 977.9
20260509014517 10 241 8.0 0.0 0.00 0.00 0.00 35 978.0
20260509013031 11 245 8.0 0.0 0.00 0.00 0.00 35 978.0
20260509011516 11 254 8.0 0.0 0.00 0.00 0.00 35 978.0
20260509010040 11 257 8.0 0.0 0.00 0.00 0.00 35 978.0
20260509004516 12 261 8.0 0.0 0.00 0.00 0.00 29 977.9
20260509003035 13 257 8.0 0.0 0.00 0.00 0.00 29 979.0
20260509001516 13 259 9.7 0.0 0.00 0.00 0.00 29 979.0
20260509000045 14 262 11.3 0.0 0.00 0.00 0.00 29 979.0
20260508234516 15 263 12.9 0.0 0.00 0.00 0.00 23 978.3
20260508233036 15 265 14.5 0.0 0.00 0.00 0.00 23 978.5
20260508231518 15 263 16.1 0.0 0.00 0.00 0.00 23 978.5
20260508230041 15 264 16.1 0.0 0.00 0.00 0.00 23 978.5
20260508224518 16 261 17.7 0.0 0.00 0.00 0.00 22 978.7
20260508223036 16 260 19.3 0.0 0.00 0.00 0.00 22 979.5
20260508221519 16 261 19.3 0.0 0.00 0.00 0.00 22 979.5
20260508220040 16 259 20.9 0.0 0.00 0.00 0.00 22 979.5
20260508214519 16 251 19.3 0.0 0.00 0.00 0.00 22 979.7
20260508213036 16 244 17.7 0.0 0.00 0.00 0.00 23 979.5
20260508211518 16 252 19.3 0.0 0.00 0.00 0.00 23 979.6
20260508210044 16 251 19.3 0.0 0.00 0.00 0.00 23 979.6
20260508204519 16 247 17.7 0.0 0.00 0.00 0.00 23 979.3
20260508203037 16 248 17.7 0.0 0.00 0.00 0.00 22 979.4
20260508201518 16 231 19.3 0.0 0.00 0.00 0.00 22 979.4
20260508200041 16 230 19.3 0.0 0.00 0.00 0.00 21 979.4
20260508194519 16 231 17.7 0.0 0.00 0.00 0.00 26 980.0
20260508193033 16 236 16.1 0.0 0.00 0.00 0.00 26 980.0
20260508191518 16 242 14.5 0.0 0.00 0.00 0.00 26 980.0
20260508190041 16 244 14.5 0.0 0.00 0.00 0.00 26 980.0
20260508184518 16 246 16.1 0.0 0.00 0.00 0.00 29 980.4
20260508183038 16 245 17.7 0.0 0.00 0.00 0.00 30 980.1
20260508181518 16 245 16.1 0.0 0.00 0.00 0.00 30 980.1
20260508180044 15 239 16.1 0.0 0.00 0.00 0.00 30 980.1
20260508174519 15 237 16.1 0.0 0.00 0.00 0.00 29 981.0
20260508173037 15 242 16.1 0.0 0.00 0.00 0.00 29 981.0
20260508171518 15 243 14.5 0.0 0.00 0.00 0.00 29 981.0
20260508170043 14 243 16.1 0.0 0.00 0.00 0.00 31 981.0
20260508164518 14 241 16.1 0.0 0.00 0.00 0.00 34 981.3
20260508163036 13 230 16.1 0.0 0.00 0.00 0.00 34 981.4
20260508161518 13 226 16.1 0.0 0.00 0.00 0.00 34 981.3
20260508160045 13 226 14.5 0.0 0.00 0.00 0.00 34 981.3
20260508154519 12 221 12.9 0.0 0.00 0.00 0.00 36 982.4
20260508153038 12 206 14.5 0.0 0.00 0.00 0.00 42 981.3
20260508151518 11 199 12.9 0.0 0.00 0.00 0.00 42 981.3
20260508150044 11 200 9.7 0.0 0.00 0.00 0.00 42 981.3
20260508144519 10 193 8.0 0.0 0.00 0.00 0.00 55 981.8
20260508143035 10 200 8.0 0.0 0.00 0.00 0.00 63 981.8
20260508141519 9 192 9.7 0.0 0.00 0.00 0.00 63 981.8
20260508140047 8 187 11.3 0.0 0.00 0.00 0.00 66 981.6
20260508134518 8 186 9.7 0.0 0.00 0.00 0.00 77 981.3
20260508133033 7 189 8.0 0.0 0.00 0.00 0.00 77 981.3
20260508131519 6 189 8.0 0.0 0.00 0.00 0.00 77 981.3
20260508130047 5 187 8.0 0.0 0.00 0.00 0.00 77 981.3
20260508124519 5 180 6.4 0.0 0.00 0.00 0.00 90 981.0
20260508123037 5 197 4.8 0.0 0.00 0.00 0.00 84 981.1
20260508121518 3 204 3.2 0.0 0.00 0.00 0.00 84 981.1
20260508120051 2 211 1.6 0.0 0.00 0.00 0.00 84 981.1
20260508114518 2 225 1.6 0.0 0.00 0.00 0.00 82 980.5
20260508113039 1 232 3.2 0.0 0.00 0.00 0.00 81 981.3
20260508111518 2 194 4.8 0.0 0.00 0.00 0.00 81 981.4
20260508110040 1 197 3.2 0.0 0.00 0.00 0.00 81 981.4
20260508104521 1 236 0.0 0.0 0.00 0.00 0.00 80 980.8
20260508103038 1 339 1.6 0.0 0.00 0.00 0.00 78 981.7
20260508101522 2 331 3.2 0.0 0.00 0.00 0.00 78 981.7
20260508100040 2 319 3.2 0.0 0.00 0.00 0.00 78 981.7
20260508094520 2 322 3.2 0.0 0.00 0.00 0.00 82 981.0
20260508093034 2 328 3.2 0.0 0.00 0.00 0.00 75 981.8
20260508091521 2 232 4.8 0.0 0.00 0.00 0.00 75 981.9
20260508090044 2 225 6.4 0.0 0.00 0.00 0.00 75 981.9
20260508084520 2 227 6.4 0.0 0.00 0.00 0.00 79 981.2
20260508083038 2 214 6.4 0.0 0.00 0.00 0.00 71 981.1
20260508081520 3 215 6.4 0.0 0.00 0.00 0.00 71 981.2
20260508080046 3 221 6.4 0.0 0.00 0.00 0.00 71 981.2
20260508074521 3 235 6.4 0.0 0.00 0.00 0.00 71 981.6
20260508073039 3 239 6.4 0.0 0.00 0.00 0.00 71 981.6
20260508071520 3 216 6.4 0.0 0.00 0.00 0.00 71 981.6
20260508070046 3 211 8.0 0.0 0.00 0.00 0.00 71 981.6
20260508064519 4 200 6.4 0.0 0.00 0.00 0.00 64 981.6
20260508063035 5 188 4.8 0.0 0.00 0.00 0.00 64 982.1
20260508061520 5 173 4.8 0.0 0.00 0.00 0.00 64 982.1
20260508060051 5 162 4.8 0.0 0.00 0.00 0.00 64 982.1
20260508054519 5 159 6.4 0.0 0.00 0.00 0.00 64 982.7
20260508053039 5 157 8.0 0.0 0.00 0.00 0.00 61 982.3
20260508051519 5 129 6.4 0.0 0.00 0.00 0.00 61 982.3
20260508050046 5 115 6.4 0.0 0.00 0.00 0.00 61 982.3
20260508044518 5 117 4.8 0.0 0.00 0.00 0.00 60 982.6
20260508043034 5 112 1.6 0.0 0.00 0.00 0.00 56 981.9